Regional Weather Roundup
Issued by NWS

Home | Current Version | Previous Version | Graphics & Text | Print | Product List | Glossary On
Versions: 1 2 3 4 5 6 7 8 9 10 11 12 13 14 15 16 17 18 19 20 21 22 23 24 25 26 27 28 29 30 31 32 33 34 35 36 37 38 39 40 41 42 43 44 45 46 47 48 49 50
000
ASUS43 KLOT 281758
RWRIL

ILLINOIS REGIONAL WEATHER ROUNDUP
NATIONAL WEATHER SERVICE CHICAGO/ROMEOVILLE IL
1200 PM CST WED JAN 28 2015

NOTE: "FAIR" INDICATES FEW OR NO CLOUDS BELOW 12,000 FEET WITH NO
SIGNIFICANT WEATHER AND/OR OBSTRUCTIONS TO VISIBILITY.

* THESE STATIONS ARE NOT UNDER NWS QUALITY CONTROL. THEY ALSO MAY NOT
  REPORT WEATHER SUCH AS PRECIPITATION OR FOG.

ILZ001-002-007-009-015-016-024-281900-
NORTHWEST ILLINOIS

CITY           SKY/WX    TMP DP  RH WIND       PRES   REMARKS
MOLINE         FAIR      32  24  72 SE15G23   30.06F WCI  22
6HR MIN TEMP:  24; 6HR MAX TEMP:  32;

$$

ILZ003-004-008-010-011-017-018-281900-
NORTH CENTRAL ILLINOIS

CITY           SKY/WX    TMP DP  RH WIND       PRES   REMARKS
ROCKFORD       NOT AVBL
$$

ILZ005-006-012>014-019>023-281900-
NORTHEAST ILLINOIS

CITY           SKY/WX    TMP DP  RH WIND       PRES   REMARKS
CHICAGO-OHARE  PTSUNNY   32  18  56 S12       30.18F WCI  23
6HR MIN TEMP:  19; 6HR MAX TEMP:  32;

CHICAGO-MIDWAY PTSUNNY   33  16  49 S16       30.20F WCI  23
6HR MIN TEMP:  24; 6HR MAX TEMP:  34;

AURORA         SUNNY     32  20  61 S18       30.18F WCI  20
6HR MIN TEMP:  19; 6HR MAX TEMP:  32;

WAUKEGAN       NOT AVBL
DUPAGE AIRPORT MOSUNNY   31  18  58 S15       30.17F WCI  20
6HR MIN TEMP:  17; 6HR MAX TEMP:  31;

WHEELING       MOSUNNY   32  16  51 S15       30.20F WCI  22
6HR MIN TEMP:  18; 6HR MAX TEMP:  32;

NORTHERLY ISL    N/A     32  14  47 S16         N/A  WCI  21
$$

LMZ740>746-281900-
SOUTHERN LAKE MICHIGAN

STATION/POSITION SKY/WX   TEMP    WIND        PRES    VSBY  WAVE
                          AIR SEA DIR/SP/G                  HT/PER
                          (F)     (DEG/KT/KT) (MB)    (MI)  (FT/S)
WAUKEGAN HARBOR            31     160/ 13/ 15   N/A
HARRISON CRIB              28     170/ 17/ 20   N/A
BURNHAM HARBOR             32     190/ 10/ 12   N/A
CALUMET HARBOR             30     170/ 13/ 17   N/A
MICHIGAN CITY              28     140/ 11/ 16   N/A
$$

ILZ025>027-034>036-040-047-049-050-058-095>099-281900-
WEST-CENTRAL ILLINOIS

CITY           SKY/WX    TMP DP  RH WIND       PRES   REMARKS
$$

ILZ028>032-037-038-041>044-048-051>054-059>061-281900-
CENTRAL ILLINOIS

CITY           SKY/WX    TMP DP  RH WIND       PRES   REMARKS
PEORIA         NOT AVBL
SPRINGFIELD    FAIR      39  29  67 SE17G25   30.15F WCI  30
6HR MIN TEMP:  26; 6HR MAX TEMP:  39;

TAYLORVILLE    NOT AVBL
$$

ILZ033-039-045-046-055>057-062-063-281900-
EAST-CENTRAL ILLINOIS

CITY           SKY/WX    TMP DP  RH WIND       PRES   REMARKS
CHAMPAIGN      SUNNY     33  25  72 SE15      30.21F WCI  23
MATTOON        FAIR      34  23  64 S20       30.21F WCI  23
$$

ILZ079-100>102-281900-
SOUTHWEST ILLINOIS

CITY           SKY/WX    TMP DP  RH WIND       PRES   REMARKS
CAHOKIA*       FAIR      42  30  62 S17G24    30.18F
$$

ILZ064>066-069>071-074>076-080>082-084>086-088>090-092>094-281900-
SOUTH-CENTRAL ILLINOIS

CITY           SKY/WX    TMP DP  RH WIND       PRES   REMARKS
CARBONDALE     FAIR      42  29  59 S12       30.25F
6HR MIN TEMP:  21; 6HR MAX TEMP:  42;

MARION         SUNNY     41  30  65 S12       30.27F
$$

ILZ067-068-072-073-078-083-087-091-281900-
SOUTHEAST ILLINOIS

CITY           SKY/WX    TMP DP  RH WIND       PRES   REMARKS
LAWRENCEVILLE  SUNNY     37  23  56 SE13      30.29F WCI  29
$$

ABBREVIATIONS USED IN REMARKS
   TC - TEMPERATURE IN CELSIUS
  WCI - WIND CHILL INDEX
   HX - HEAT INDEX
  VSB - VISIBILITY
$$



USA.gov is the U.S. government's official web portal to all federal, state and local government web resources and services.